AFR407 SCEL-LFPG

Flight info

Callsign AFR407
Flight time N/A
Altitude 34000
Route DONTI6A DONTI UQ802 PUNAP/N0496F350 UT296 BUVSA/N0501F340 UQ815 LOA/N0500F350 UL540 VIR UL322 BUPNA/N0497F370 UL322 PAKEM DCT SUSNO UL322 KUMOS DCT BUVIP UL322 TIM UM527 TRAPP DCT 11N055W DCT MUNTR/M084F390 DCT 22N045W 28N040W 38N030W/M084F410 41N025W 43N020W DCT PASAS DCT SIVIR/M084F400 UN460 RIVAK/N0480F400 DCT KOLEK DCT AKEMO DCT TERPO DCT ANG/N0505F300 UN741 TEMTO DCT ROMGO
Aircraft A359/H-SDE2E3GHIJ3J4J5LM1ORWXY/LB1D1

Departure

Time 2026-04-30 22:37
Airport Comodoro Arturo Merino Benítez International Airport (SCEL)

Arrival

Time N/A
Airport Charles de Gaulle International Airport (LFPG)
Time Latitude Longitude Altitude Speed Heading
2026-04-30 21:58 -33.39918 -70.79708 1585 ft 0 kts 178°
2026-04-30 22:20 -33.39912 -70.79708 1584 ft 4 kts 176°
2026-04-30 22:21 -33.39886 -70.79714 1587 ft 4 kts 147°
2026-04-30 22:21 -33.39870 -70.79729 1587 ft 4 kts 152°
2026-04-30 22:21 -33.39849 -70.79732 1587 ft 4 kts 217°
2026-04-30 22:21 -33.39837 -70.79711 1587 ft 0 kts 268°
2026-04-30 22:22 -33.39838 -70.79729 1587 ft 4 kts 268°
2026-04-30 22:22 -33.39839 -70.79746 1587 ft 4 kts 268°
2026-04-30 22:30 -33.39840 -70.79765 1583 ft 6 kts 267°
2026-04-30 22:31 -33.39799 -70.80021 1591 ft 14 kts 342°
2026-04-30 22:32 -33.39371 -70.80051 1591 ft 22 kts 356°
2026-04-30 22:32 -33.39043 -70.80072 1592 ft 25 kts 357°
2026-04-30 22:33 -33.38493 -70.80103 1592 ft 28 kts
2026-04-30 22:33 -33.38117 -70.80121 1591 ft 22 kts 353°
2026-04-30 22:34 -33.37625 -70.80148 1592 ft 25 kts 358°
2026-04-30 22:35 -33.37259 -70.80165 1592 ft 27 kts 358°
2026-04-30 22:36 -33.37192 -70.80373 1598 ft 12 kts 180°
2026-04-30 22:36 -33.37207 -70.80372 1598 ft 0 kts 176°
2026-04-30 22:37 -33.39013 -70.80272 1605 ft 171 kts 177°
2026-04-30 22:37 -33.40190 -70.80221 2346 ft 158 kts 181°
2026-04-30 22:37 -33.42441 -70.80277 3457 ft 163 kts 182°
2026-04-30 22:38 -33.44659 -70.80239 3997 ft 168 kts 173°
2026-04-30 22:38 -33.47163 -70.79917 4268 ft 195 kts 175°
2026-04-30 22:39 -33.48567 -70.79797 4431 ft 209 kts 176°
2026-04-30 22:39 -33.53053 -70.81203 4916 ft 256 kts 229°
2026-04-30 22:40 -33.54708 -70.87519 6171 ft 274 kts 259°
2026-04-30 22:41 -33.55927 -70.94287 7948 ft 279 kts 260°
2026-04-30 22:41 -33.56768 -70.98858 9218 ft 282 kts 261°
2026-04-30 22:42 -33.56683 -71.08257 10747 ft 305 kts 304°
2026-04-30 22:43 -33.53046 -71.10883 11170 ft 331 kts 349°
2026-04-30 22:43 -33.48277 -71.11512 11628 ft 355 kts 352°
2026-04-30 22:44 -33.43245 -71.12169 12122 ft 373 kts 351°
2026-04-30 22:45 -33.32763 -71.13643 13927 ft 384 kts 351°
2026-04-30 22:45 -33.27432 -71.14398 14684 ft 388 kts 350°
2026-04-30 22:46 -33.22041 -71.15163 15506 ft 392 kts 350°
2026-04-30 22:47 -33.11093 -71.16723 17141 ft 400 kts 350°
2026-04-30 22:47 -33.05545 -71.17512 17998 ft 405 kts 350°
2026-04-30 22:48 -32.99903 -71.18305 18757 ft 411 kts 350°
2026-04-30 22:49 -32.91299 -71.19181 19802 ft 421 kts 354°
2026-04-30 22:49 -32.82408 -71.19316 20875 ft 430 kts 355°
2026-04-30 22:50 -32.70256 -71.19498 22246 ft 442 kts 354°
2026-04-30 22:51 -32.64063 -71.19610 22965 ft 448 kts 354°
2026-04-30 22:51 -32.57778 -71.19719 23670 ft 454 kts 354°
2026-04-30 22:52 -32.54657 -71.19778 23979 ft 456 kts 354°
2026-04-30 22:52 -32.48267 -71.19895 24624 ft 460 kts 354°
2026-04-30 22:53 -32.41829 -71.20007 25290 ft 465 kts 354°
2026-04-30 22:53 -32.35330 -71.20127 25945 ft 469 kts 354°
2026-04-30 22:53 -32.32053 -71.20185 26254 ft 471 kts 354°
2026-04-30 22:54 -32.25507 -71.20300 26883 ft 475 kts 354°
2026-04-30 22:55 -32.15518 -71.20484 27826 ft 481 kts 354°
2026-04-30 22:55 -32.08783 -71.20611 28413 ft 485 kts 354°
2026-04-30 22:56 -32.01994 -71.20729 28970 ft 489 kts 354°
2026-04-30 22:56 -31.91841 -71.20904 30086 ft 485 kts 354°
2026-04-30 22:57 -31.85101 -71.21023 30714 ft 484 kts 354°
2026-04-30 22:57 -31.78401 -71.21147 31248 ft 483 kts 354°
2026-04-30 22:58 -31.71662 -71.21000 31776 ft 485 kts 358°
2026-04-30 22:59 -31.61560 -71.20223 32519 ft 484 kts 359°
2026-04-30 22:59 -31.51519 -71.19534 33176 ft 482 kts 358°